Location: Lahourcade
(43.3500°N, 0.6167°W)
Time: 08:19:34
(UTC+00:00)

Daily predictions for brighter satellites

Satellite Brightness Start Highest point End
(mag) Time Altitude Azimuth Time Altitude Azimuth Time Altitude Azimuth
NOSS 3-1 (C) 3.1 19:58:19 10° SSW 20:02:53 51° ESE 20:08:16 10° NE
Cosmos 1455 Rocket 3.0 20:01:17 10° N 20:05:40 81° E 20:09:59 10° S
MOS 1-B 4.5 20:00:29 10° SSE 20:06:16 89° WSW 20:12:08 10° NNW
PSLV R/B 3.7 20:03:00 10° SSE 20:06:32 63° ENE 20:10:09 10° N
Okean-O 3.1 20:03:26 10° SE 20:07:37 44° ENE 20:11:49 10° N
SL-23 DEB 4.3 20:05:34 10° NW 20:09:02 60° NNE 20:14:22 10° ESE
Cosmos 1975 Rocket 3.1 20:05:46 10° S 20:10:13 73° E 20:14:40 10° NNE
Cosmos 2154 Rocket 4.1 20:04:12 10° S 20:10:33 89° E 20:16:56 10° N
Cosmos 1437 Rocket 3.5 20:09:50 10° SSE 20:12:57 28° E 20:16:07 10° NNE
ISS -2.1 20:13:18 10° NW 20:16:13 28° NNE 20:19:08 10° E
Meteor 2-1 Rocket 4.2 20:14:03 10° N 20:19:37 74° ENE 20:25:06 10° SSE
BREEZE-M DEB (TANK) 3.8 20:18:08 10° NW 20:21:31 23° N 20:23:27 10° ENE
Cosmos 220 Rocket 4.0 20:17:48 10° NNW 20:21:59 83° WSW 20:26:11 10° SSE
OAO 3 Rocket 4.3 20:18:49 10° SW 20:22:27 23° SSE 20:25:56 11° ESE
H-2A R/B 3.1 20:21:34 10° SSW 20:23:49 14° S 20:25:44 11° SSE
ATLAS CENTAUR R/B 4.0 20:25:16 10° WNW 20:27:38 15° WSW 20:30:02 10° SSW
Cosmos 2298 Rocket 4.0 20:24:26 10° SSW 20:29:46 85° ESE 20:35:07 10° NNE
CZ-2C R/B 4.5 20:25:34 10° S 20:29:57 86° E 20:56:32 10° N
GP-B 3.9 20:25:53 10° N 20:30:12 55° W 20:34:29 10° SSW
MetOp-B 4.3 20:26:13 10° SSE 20:31:30 63° ENE 20:36:47 10° N
Cosmos 1606 2.4 20:28:43 10° N 20:32:17 84° E 20:35:46 10° S
Meteor 1-11 4.4 20:28:25 10° SSW 20:34:07 83° W 20:39:48 10° N
USA 307 4.4 20:34:41 10° NW 20:37:59 25° NNE 20:41:09 10° ENE
CZ-4 R/B 4.1 20:36:18 10° SW 20:38:43 16° W 20:41:08 10° NW
Cosmos 2366 rocket 4.2 20:35:55 10° SSE 20:41:46 50° E 20:47:40 10° NNE
Cosmos 1536 Rocket 4.0 20:37:51 10° SSE 20:41:50 40° E 20:45:53 10° NNE
CZ-4C R/B 4.1 20:36:00 10° NNW 20:42:07 32° NE 20:49:20 10° E
Cosmos 1833 Rocket 2.9 20:37:40 10° NNW 20:43:19 71° WSW 20:48:52 10° SSE
ULPM Upper Stage 3.6 20:41:22 10° NNW 20:45:30 40° NE 20:48:42 15° ESE
NOSS 3-1 (A) 3.1 20:41:00 10° SSW 20:45:35 50° ESE 20:50:58 10° NE
SL-8 Rocket 4.1 20:40:16 10° S 20:46:27 63° E 20:52:41 10° NNE
ERS-1 Rocket 3.0 20:49:38 15° SSE 20:53:45 65° ENE 20:58:43 10° N
Cosmos 614 Rocket 3.9 20:51:19 10° NNW 20:56:24 84° WSW 21:00:29 16° SSE
Cosmos 2084 Rocket 3.1 20:59:42 10° NW 21:03:40 87° NE 21:05:50 25° SE
Okean O Rocket 3.6 21:00:12 10° SSW 21:03:46 25° W 21:07:21 10° NW
Cosmos 1869 4.5 21:02:34 10° NNW 21:06:11 39° W 21:09:48 10° SSW
Gbstr 26 Del rocket 4.4 21:03:46 10° NW 21:08:02 39° NNE 21:13:10 10° E
Lacrosse 5 4.5 21:05:28 10° NW 21:08:45 17° N 21:12:03 10° NE
Cosmos 864 Rocket 4.4 21:05:09 10° S 21:11:22 84° E 21:17:34 10° N
Resurs 01 Rocket 4.3 21:10:01 10° WSW 21:12:22 14° W 21:14:43 10° WNW
Cosmos 2082 Rocket 2.4 21:08:52 10° NNW 21:14:26 60° ENE 21:17:46 24° SE
ATLAS 3B R/B 2.8 21:08:01 10° SSW 21:15:02 73° ESE 21:22:37 10° NE
Cosmos 2369 Rocket 3.9 21:15:09 14° E 21:15:09 14° E 21:17:43 10° ENE
USA 229 DEB 4.2 21:13:01 21° SSE 21:15:45 29° ESE 21:21:13 10° NE
USA 229 4.2 21:13:14 21° SSE 21:15:52 29° ESE 21:21:18 10° NE
USA 305 2.9 21:13:08 10° NW 21:16:46 50° NNE 21:18:10 29° E
Cosmos 1943 Rocket 2.1 21:11:22 10° SSW 21:17:00 78° ESE 21:22:38 10° NNE
Spot 2 Rocket 3.5 21:14:27 22° SSE 21:17:49 79° ENE 21:22:55 10° N
Cosmos 2278 Rocket 2.6 21:12:42 10° SW 21:18:19 67° WNW 21:23:59 10° NNE
Terra 1.9 21:20:35 21° S 21:23:43 78° WSW 21:28:28 10° NNW
Cosmos 2218 Rocket 4.2 21:25:05 10° SSW 21:31:13 72° W 21:37:26 10° N
SPOT 3 Rocket 3.5 21:28:25 26° SSE 21:31:27 86° ENE 21:36:42 10° NNW
USA 215 3.3 21:28:46 23° ESE 21:33:06 82° NE 21:39:42 10° NW
USA 290 4.1 21:30:34 10° SW 21:33:25 30° WNW 21:36:16 10° N
SPOT 5 4.4 21:29:47 10° SSW 21:34:21 34° W 21:39:07 10° NNW
Cosmos 2228 4.2 21:31:46 10° NNW 21:35:37 36° W 21:38:39 15° SSW
MOS 1 Rocket 3.7 21:34:52 21° SSW 21:37:40 51° W 21:41:54 10° NNW
Meteor 2-13 Rocket 4.4 21:31:57 10° N 21:38:09 83° E 21:41:43 27° SSE
Cosmos 1892 Rocket 3.8 21:39:29 38° SE 21:40:42 50° E 21:45:00 10° NNE
ARIANE 5 R/B 4.4 21:39:29 17° E 21:40:44 19° ENE 21:43:54 10° NNE
Cosmos 192 4.3 21:38:40 25° S 21:41:31 69° ESE 21:46:27 10° NNE
SL-8 R/B 3.6 21:37:19 10° WSW 21:42:07 90° SSE 21:46:57 10° ENE
Cosmos 1812 2.8 21:40:27 10° N 21:43:53 48° ENE 21:44:10 47° E
Lacrosse 5 rocket 1.3 21:46:16 49° ESE 21:46:16 49° ESE 21:49:31 10° NE
Ariane Rocket 3.2 21:43:05 26° S 21:45:54 65° WSW 21:50:57 10° NNW
BREEZE-M DEB (TANK) 4.4 21:49:58 10° NW 21:52:27 37° NNE 21:57:31 10° E
ISS -3.7 21:49:52 10° WNW 21:53:03 63° SW 21:53:03 63° SW
Landsat 5 3.5 21:49:54 10° NNE 21:54:15 69° ESE 21:55:19 48° SSE
Cosmos 1023 Rocket 4.5 21:49:44 10° NNW 21:54:51 71° ENE 21:56:34 41° SE
Cosmos 1726 Rocket 3.4 21:51:17 10° N 21:55:36 86° ENE 21:56:43 50° SSE
Cosmos 2058 3.1 21:55:23 49° ESE 21:55:40 50° E 21:59:39 10° NNE
Cosmos 1606 Rocket 3.7 21:52:34 10° NNW 21:56:52 67° W 21:58:17 40° SSW
Cosmos 1932 4.5 21:51:21 10° NW 21:57:33 74° WSW 22:00:14 36° SSE
Cosmos 1821 Rocket 4.2 21:56:43 18° SSW 22:01:36 71° W 22:08:00 10° N
Cosmos 1656 Rocket 3.9 22:01:48 41° SE 22:02:58 48° ESE 22:08:17 10° NE
Geosat 3.9 21:58:59 10° NNE 22:03:59 66° ESE 22:05:42 40° S
OAO 3 Rocket 4.5 22:01:05 10° WSW 22:03:32 24° SW 22:03:32 24° SW
Cosmos 1727 Rocket 4.1 21:59:29 10° NNW 22:05:47 73° W 22:09:00 30° S
CENTAUR R/B 4.4 22:00:59 10° NNW 22:08:13 35° NE 22:16:06 11° E
COSMOS 2406 3.3 22:02:43 10° NNW 22:08:21 67° WSW 22:10:26 39° S
BREEZE-M DEB (TANK) 3.5 22:02:19 10° WNW 22:10:22 37° SW 22:11:08 34° SSW
USA 307 2.4 22:07:40 10° NW 22:11:24 80° W 22:11:24 80° W
Alouette 2 Rocket 4.0 22:12:52 51° SSE 22:14:00 71° E 22:20:25 10° NNE
MetOp-A 3.5 22:14:52 60° S 22:15:36 79° WSW 22:19:43 10° NNW
Cosmos 407 Rocket 3.4 22:17:18 10° NNW 22:22:31 76° ENE 22:23:40 54° SE
Cosmos 1605 Rocket 4.4 22:22:38 39° ESE 22:23:53 44° E 22:29:41 10° NNE
ULPM Upper Stage 4.2 22:21:06 10° WNW 22:24:44 26° WSW 22:25:03 26° SW
COSMOS 2455 4.1 22:20:44 10° NNW 22:26:09 33° NE 22:29:02 22° E
Cosmos 1140 Rocket 3.6 22:21:32 10° NNW 22:26:38 65° WSW 22:27:48 49° SSW
CZ-4C R/B 3.0 22:23:56 10° NW 22:31:18 82° WSW 22:34:57 39° SSE
Milstar 3 4.1 22:25:06 10° SW 22:39:43 19° ESE 22:43:51 10° ESE
Cosmos 1371 Rocket 4.4 22:33:41 46° ESE 22:33:46 46° ESE 22:38:51 10° NNE
Cosmos 1271 Rocket 3.1 22:36:00 55° NE 22:36:00 55° NE 22:39:05 10° NNE
Cosmos-2242 3.3 22:33:20 10° N 22:37:13 53° ENE 22:37:13 53° ENE
Cosmos 2297 3.6 22:38:58 44° SSW 22:40:54 89° WNW 22:46:39 10° NNE
Exosat Rocket 4.3 22:36:11 10° N 22:41:03 39° ENE 22:42:07 35° E
Cosmos 2058 Rocket 3.4 22:39:22 10° NNW 22:43:37 54° W 22:43:57 53° WSW
CZ-2C R/B 3.6 22:39:38 10° NNE 22:44:21 89° WNW 22:44:51 72° SSW
Meteor 2-19 Rocket 4.3 22:38:15 10° N 22:44:26 87° E 22:45:58 54° SSE
Lacrosse 5 3.7 22:48:59 10° NW 22:53:15 26° NNE 22:57:14 11° E
Cosmos 1812 Rocket 4.1 22:49:43 10° N 22:53:51 49° ENE 22:53:51 49° ENE
Cosmos 1602 Rocket 4.0 22:54:51 52° ENE 22:54:51 52° ENE 22:58:30 10° NNE
Gbstr 26 Del rocket 3.5 22:50:01 10° WNW 22:54:57 71° SW 22:55:26 67° S
Meteor 2-3 Rocket 3.6 22:56:57 64° S 22:57:53 82° E 23:03:32 10° NNE
Cosmos 2082 Rocket 3.9 22:54:01 10° NW 22:57:59 20° W 22:59:36 18° WSW
Cosmos 2369 Rocket 2.1 22:56:53 53° SSW 22:58:14 84° WNW 23:03:54 10° NNE
Cosmos 2123 Rocket 4.3 22:53:53 10° NNW 23:00:04 58° W 23:01:58 42° SSW
Cosmos 1954 Rocket 4.0 22:55:48 10° NNW 23:00:57 66° ENE 23:01:25 62° E
Cosmos 1782 3.4 22:58:54 10° NNW 23:01:56 51° NW 23:01:56 51° NW
Lacrosse 4 Rocket 1.7 23:04:32 61° NNW 23:04:32 61° NNW 23:08:14 10° NNE
Cosmos 1624 Rocket 3.8 23:05:33 77° S 23:05:56 86° ESE 23:11:13 10° NNE
USA 229 DEB 4.1 23:00:18 10° SW 23:06:13 55° NW 23:12:50 10° NNE
USA 229 4.1 23:00:31 11° SW 23:06:19 55° NW 23:12:56 10° NNE
ATLAS 3B R/B 4.5 22:59:59 10° W 23:06:29 33° NW 23:13:21 10° NNE
Cosmos 1420 Rocket 4.1 23:05:35 59° SW 23:06:31 75° WNW 23:11:48 10° NNE
USA 81 3.9 23:02:41 10° N 23:07:59 86° E 23:08:23 76° SSE
Cosmos 1862 4.1 23:10:26 47° NNE 23:10:26 47° NNE 23:13:16 10° N
SeaSat 1 3.7 23:11:06 29° E 23:12:20 33° NE 23:16:42 10° N
H-2A R/B 3.0 23:14:16 49° N 23:14:16 49° N 23:17:09 10° N
Cosmos 1758 Rocket 3.7 23:14:35 66° NW 23:14:35 66° NW 23:18:32 10° N
Cosmos 1626 Rocket 4.2 23:14:21 47° W 23:14:24 47° WNW 23:18:34 10° N
USA 215 4.2 23:16:06 29° SW 23:16:32 29° SW 23:22:06 10° WNW
ARIANE 5 R/B 3.3 23:16:57 45° W 23:16:57 45° W 23:21:05 10° NNW
Cosmos 1461 3.6 23:13:11 10° NNW 23:16:06 46° N 23:16:06 46° N
Cosmos 1933 4.0 23:14:02 10° NNW 23:17:07 49° NW 23:17:07 49° NW
Cosmos 1809 Rocket 4.4 23:12:21 10° N 23:18:33 74° E 23:19:35 61° SE
Cosmos 2251 Rocket 4.2 23:13:41 10° NW 23:18:38 40° WSW 23:18:58 40° WSW
Cosmos 2221 3.5 23:15:20 10° N 23:18:49 39° NE 23:18:49 39° NE
Cosmos 1238 Rocket 4.2 23:16:54 10° NNW 23:20:30 33° W 23:20:30 33° W
Cosmos 2056 Rocket 3.6 23:21:02 60° WSW 23:21:45 69° WNW 23:26:57 10° NNE
Lacrosse 5 rocket 3.4 23:21:08 10° W 23:24:17 25° NNW 23:27:34 10° NNE
ATLAS CENTAUR R/B 4.4 23:28:31 21° E 23:28:31 21° E 23:32:31 10° ENE
Meteor 1-26 Rocket 4.1 23:22:59 10° N 23:28:40 86° W 23:29:14 73° S
ALOS 2 2.8 23:29:16 69° N 23:29:16 69° N 23:33:10 10° NNW
CRYOSAT 2 4.3 23:25:13 10° N 23:30:06 74° W 23:30:07 74° W
Cosmos 2263 4.5 23:29:22 48° WSW 23:30:47 64° WNW 23:36:32 10° NNE
Spot 4 3.9 23:31:16 67° W 23:31:16 67° W 23:35:58 10° NNW
Cosmos 1340 Rocket 4.2 23:35:50 10° N 23:38:36 32° NE 23:38:36 32° NE
Okean 1-7 Rocket 4.4 23:40:09 43° WNW 23:40:09 43° WNW 23:44:10 10° N
USA 59 Rocket 2.1 23:42:37 13° NE 23:42:37 13° NE 23:43:00 10° NE
Cosmos 676 Rocket 4.0 23:35:51 10° NNW 23:40:50 68° W 23:40:50 68° W
Meteor 2-21 4.3 23:35:04 10° N 23:41:17 84° E 23:42:09 68° SSE
Cosmos 1666 4.5 23:48:24 26° NNW 23:48:24 26° NNW 23:50:16 10° N
SL-19 R/B 4.4 23:44:18 10° NNE 23:50:48 90° ESE 23:51:43 67° SSW
Cosmos 1459 Rocket 3.9 23:50:37 64° SE 23:51:26 72° E 23:57:43 10° NNE
